"Pseudo-MPEC" for P21vY5k

Created 2022 Sep 1 15:22:44 UT using Find_Orb

Click here for an explanation of pseudo-MPECs

 
 Astrometry: 
     P21vY5k* C2022 08 09t/QyAE\-Nh';$Fn$\U0taiUl`mN!-5vgAstrometryO8f1E:y0XLF52
     P21vY5k  C2022 08 09X\bgUsappb#d6$KKTgl*Y3oY'o_7'focN7r!xhIPug@S8F.Yll9%F52
     P21vY5k  C2022 08 09ar-01x7wHU_M']E`F@MANeg\y3(89C0TuxksFy+NZCD)j1eNPRdOF52
     P21vY5k  C2022 08 10flAY6+3D'1redacted;i2jSq3:mx`HcLP9X;CxadWQpjOQV?Qhc^F52
     P21vY5k  C2022 08 109[qTwclick?,here]gI/=h2_fN$xYNB/%R(0tkn4L?h#8N`%wJwmF52
     P21vY5k  C2022 09 01lcS27W0K_-Zd_btZ-BnY;66forTv3oF0blNo%?ijev$O6@#JMy`;F51
     P21vY5k  C2022 09 01.vIs\usG7@u-E:34_yec(U*`%W9wr._nWeA::oaQ56^4*Li%g--vF51
     P21vY5k  C2022 09 017G!HaR@o7i'dAY\nHL,\VX_]-E#xFXa1u1d8%N3ubIC0u*G+`+T@F51
     P21vY5k  C2022 09 01lywjyVkaAfLC*d2wRtu_uY`vFfPfexplanationX)#(NHCoholr3F51

Station data:
(F51) Pan-STARRS 1, Haleakala  (N20.707234 W156.255910)  US/Hawaii.
   Observers J. Bulger, T. Lowe, A. Schultz, M. Willman. Measurers K.
   Chambers, S. Chastel, T. de Boer, L. Denneau, J. Fairlamb, H. Flewelling,
   M. Huber, C.-C. Lin, E. Magnier, Y. Ramanjooloo, R. Wainscoat, R. Weryk.
   1.8-m Ritchey-Chrétien + CCD.
(F52) Pan-STARRS 2, Haleakala  (N20.707382 W156.255910)  US/Hawaii.
   Observers J. Bulger, T. Dukes, T. Lowe, A. Schultz, M. Willman. Measurers
   K. Chambers, S. Chastel, T. de Boer, L. Denneau, J. Fairlamb, H.
   Flewelling, M. Huber, C.-C. Lin, E. Magnier, Y. Ramanjooloo, R. Wainscoat,
   R. Weryk. 1.8-m Ritchey-Chrétien + CCD.

Orbital elements:  P21vY5k
   Perihelion 2022 Sep 25.88828 +/- 0.224 TT = 21:19:07 (JD 2459848.38828)
Epoch 2022 Sep  1.0 TT = JDT 2459823.5   Earth MOID: 0.4732   AutoNEOCP
M 354.77512643 +/- 0.10             (J2000 ecliptic)
n   0.20993312 +/- 0.00262          Peri.   36.03840 +/- 0.16
a   2.80381098 +/- 0.0233           Node   334.84583 +/- 0.050
e   0.4783630 +/- 0.00363           Incl.    9.27484 +/- 0.027
P   4.69                   H 20.6   G  0.15   U  8.8
q 1.46257139 +/- 0.00201    Q 4.14505057 +/- 0.0447
From 9 observations 2022 Aug. 9-Sept. 1; mean residual 0".11
Residuals in arcseconds: 
220809 F52  .03+  .16-    220810 F52  .09-  .27-    220901 F51  .02-  .04+    
220809 F52  .06-  .10+    220810 F52  .09+  .27+    220901 F51  .01+  .03-    
220809 F52  .03+  .07+    220901 F51  .01+  .03+    220901 F51  .01-  .04-    

Ephemerides (geocentric):
Date (UTC) HH   RA             Dec           delta  r     elong  mag " sig PA
---- --------  ------------   ------------  ------ ------ -----  --- --------
2022 09 01 15  01 10 17.455   +16 06 08.23  .57992 1.4818 135.9 21.5 .134 102
2022 09 01 16  01 10 19.202   +16 07 09.93  .57972 1.4818 136.0 21.5 .157 105
2022 09 01 17  01 10 20.945   +16 08 11.64  .57952 1.4817 136.0 21.5 .180 107
2022 09 01 18  01 10 22.685   +16 09 13.34  .57933 1.4816 136.0 21.5 .204 109
2022 09 01 19  01 10 24.421   +16 10 15.03  .57913 1.4816 136.0 21.5 .228 111
2022 09 01 20  01 10 26.153   +16 11 16.73  .57893 1.4815 136.1 21.5 .252 112
2022 09 01 21  01 10 27.882   +16 12 18.42  .57874 1.4814 136.1 21.5 .276 113
2022 09 01 22  01 10 29.608   +16 13 20.11  .57854 1.4814 136.1 21.5 .301 114
2022 09 01 23  01 10 31.330   +16 14 21.80  .57834 1.4813 136.1 21.5 .326 115
2022 09 02 00  01 10 33.048   +16 15 23.48  .57815 1.4813 136.2 21.5 .351 115
2022 09 02 01  01 10 34.762   +16 16 25.16  .57795 1.4812 136.2 21.5 .376 116
2022 09 02 02  01 10 36.473   +16 17 26.84  .57776 1.4811 136.2 21.5 .401 117
2022 09 02 03  01 10 38.181   +16 18 28.52  .57756 1.4811 136.2 21.5 .426 117
2022 09 02 04  01 10 39.885   +16 19 30.19  .57737 1.4810 136.3 21.5 .452 117
2022 09 02 05  01 10 41.585   +16 20 31.85  .57717 1.4809 136.3 21.5 .478 118
2022 09 02 06  01 10 43.282   +16 21 33.52  .57698 1.4809 136.3 21.5 .503 118
2022 09 02 07  01 10 44.975   +16 22 35.18  .57678 1.4808 136.3 21.5 .529 118
2022 09 02 08  01 10 46.664   +16 23 36.84  .57659 1.4807 136.4 21.5 .555 119
2022 09 02 09  01 10 48.350   +16 24 38.49  .57640 1.4807 136.4 21.5 .581 119
2022 09 02 10  01 10 50.032   +16 25 40.14  .57620 1.4806 136.4 21.5 .608 119
2022 09 02 11  01 10 51.711   +16 26 41.79  .57601 1.4806 136.4 21.5 .634 119
2022 09 02 12  01 10 53.386   +16 27 43.44  .57582 1.4805 136.4 21.5 .661 119
2022 09 02 13  01 10 55.058   +16 28 45.08  .57562 1.4804 136.5 21.5 .687 120
2022 09 02 14  01 10 56.726   +16 29 46.71  .57543 1.4804 136.5 21.5 .714 120
2022 09 02 15  01 10 58.390   +16 30 48.35  .57524 1.4803 136.5 21.5 .741 120
2022 09 02 16  01 11 00.051   +16 31 49.98  .57505 1.4802 136.5 21.5 .768 120
2022 09 02 17  01 11 01.708   +16 32 51.60  .57485 1.4802 136.6 21.5 .795 120
2022 09 02 18  01 11 03.361   +16 33 53.22  .57466 1.4801 136.6 21.5 .822 120
2022 09 02 19  01 11 05.011   +16 34 54.84  .57447 1.4800 136.6 21.5 .849 120
2022 09 02 20  01 11 06.658   +16 35 56.46  .57428 1.4800 136.6 21.5 .877 120
2022 09 02 21  01 11 08.300   +16 36 58.07  .57409 1.4799 136.7 21.5 .904 121
2022 09 02 22  01 11 09.939   +16 37 59.67  .57390 1.4799 136.7 21.5 .932 121
2022 09 02 23  01 11 11.575   +16 39 01.27  .57371 1.4798 136.7 21.5 .960 121
2022 09 03 00  01 11 13.207   +16 40 02.87  .57351 1.4797 136.7 21.5 .988 121
2022 09 03 01  01 11 14.835   +16 41 04.46  .57332 1.4797 136.8 21.5 1.02 121
2022 09 03 02  01 11 16.460   +16 42 06.05  .57313 1.4796 136.8 21.4 1.04 121
2022 09 03 03  01 11 18.081   +16 43 07.64  .57294 1.4796 136.8 21.4 1.07 121
2022 09 03 04  01 11 19.698   +16 44 09.22  .57275 1.4795 136.8 21.4 1.10 121
2022 09 03 05  01 11 21.312   +16 45 10.79  .57256 1.4794 136.9 21.4 1.13 121
2022 09 03 06  01 11 22.922   +16 46 12.36  .57238 1.4794 136.9 21.4 1.16 121
2022 09 03 07  01 11 24.528   +16 47 13.93  .57219 1.4793 136.9 21.4 1.19 121
2022 09 03 08  01 11 26.131   +16 48 15.49  .57200 1.4792 136.9 21.4 1.22 121
2022 09 03 09  01 11 27.730   +16 49 17.05  .57181 1.4792 137.0 21.4 1.24 121
2022 09 03 10  01 11 29.326   +16 50 18.60  .57162 1.4791 137.0 21.4 1.27 121
2022 09 03 11  01 11 30.918   +16 51 20.15  .57143 1.4791 137.0 21.4 1.30 122
2022 09 03 12  01 11 32.506   +16 52 21.70  .57124 1.4790 137.0 21.4 1.33 122
2022 09 03 13  01 11 34.091   +16 53 23.24  .57106 1.4789 137.1 21.4 1.36 122
2022 09 03 14  01 11 35.672   +16 54 24.77  .57087 1.4789 137.1 21.4 1.39 122